Index of /nightly/org.ametys.plugins

[ICO]NameLast modifiedSizeDescription

[PARENTDIR]Parent Directory  -  
[DIR]artisteer/2021-09-08 06:25 -  
[DIR]blog/2021-10-01 06:25 -  
[DIR]bpm/2021-06-01 06:25 -  
[DIR]calendar/2021-09-08 06:25 -  
[DIR]cart/2021-08-28 06:25 -  
[DIR]classified-ads/2021-12-29 06:25 -  
[DIR]content-io/2021-11-02 06:25 -  
[DIR]contents-tree/2021-07-07 06:25 -  
[DIR]contenttypes-editor/2021-12-29 06:25 -  
[DIR]dashboard/2021-09-08 06:25 -  
[DIR]data-filler/2021-08-28 06:25 -  
[DIR]datasources-explorer/2021-12-29 06:25 -  
[DIR]deploy-starter/2021-07-07 06:25 -  
[DIR]exchange-site/2021-09-18 03:23 -  
[DIR]exchange/2021-07-07 06:25 -  
[DIR]external-data/2021-03-31 06:25 -  
[DIR]extra-user-management-site/2021-09-18 02:43 -  
[DIR]extra-user-management/2021-05-20 05:05 -  
[DIR]extraction/2021-08-28 06:25 -  
[DIR]faq/2021-09-08 06:25 -  
[DIR]flipbook/2021-12-29 06:25 -  
[DIR]forms/2021-09-08 06:25 -  
[DIR]front-edition/2021-11-02 06:25 -  
[DIR]front-notification/2021-10-08 19:39 -  
[DIR]glossary/2021-09-08 06:25 -  
[DIR]glpi/2021-08-28 06:25 -  
[DIR]google-calendar/2021-09-08 06:25 -  
[DIR]inlinemedia/2021-10-01 06:25 -  
[DIR]job-offer/2021-10-21 03:20 -  
[DIR]link-directory/2021-09-08 06:25 -  
[DIR]maps/2021-09-08 06:25 -  
[DIR]messaging-connector/2021-11-02 06:25 -  
[DIR]mobileapp-site/2021-12-02 06:25 -  
[DIR]mobileapp/2021-08-28 06:25 -  
[DIR]multimedia/2021-12-29 06:25 -  
[DIR]myfavorites/2021-09-08 06:25 -  
[DIR]news/2021-09-08 06:25 -  
[DIR]newsletter/2021-11-02 06:25 -  
[DIR]odf-ose/2021-11-02 06:25 -  
[DIR]odf-pilotage/2021-11-02 06:25 -  
[DIR]odf-sync/2021-11-02 06:25 -  
[DIR]odf-web/2021-11-02 06:25 -  
[DIR]odf/2021-11-02 06:25 -  
[DIR]page-subscription/2021-09-08 06:25 -  
[DIR]proxied-content-site/2021-06-01 12:25 -  
[DIR]proxied-content/2021-09-08 06:25 -  
[DIR]queries-directory/2021-07-07 06:25 -  
[DIR]server-directory/2021-09-08 06:25 -  
[DIR]skin-commons/2021-11-02 06:25 -  
[DIR]skin-editor/2021-11-02 06:25 -  
[DIR]skin-factory/2021-11-02 06:25 -  
[DIR]social-networking/2021-07-07 06:25 -  
[DIR]survey/2021-11-02 06:25 -  
[DIR]syndication/2021-09-08 06:25 -  
[DIR]tagcloud/2021-09-08 06:25 -  
[DIR]tarteaucitron/2021-08-04 12:30 -  
[DIR]thesaurus/2021-12-29 06:25 -  
[DIR]translation-flagging/2021-07-07 06:25 -  
[DIR]ugc/2021-09-08 06:25 -  
[DIR]user-directory/2021-11-02 06:25 -  
[DIR]web-analytics/2021-09-08 06:25 -  
[DIR]web-content-io/2021-08-28 06:25 -  
[DIR]web-deploy-starter/2021-07-07 06:25 -  
[DIR]workspaces-site/2021-11-02 06:25 -  
[DIR]workspaces/2021-11-02 06:25 -  
[DIR]zimbra/2021-08-28 06:25 -